CAPE
1018 817 564 187 68 402 298 367 401 413 400 201 52 2 0 0 0 0 0 4 55 107 113 102 87 113 189 246 286 188 2 0 0 2 1 1 1 1 2 1 1 2 2
846 627 200 56 214 289 348 375 396 319 280 79 17 3 0 0 0 0 0 0 19 29 39 63 84 59 102 213 234 67 0 0 0 0 2 2 2 2 2 2 3 1 1
871 489 72 44 166 263 355 320 240 206 216 80 2 0 0 0 0 0 0 0 2 0 0 15 15 67 67 54 36 1 0 0 0 0 1 2 3 2 2 3 3 5 7
807 394 109 127 308 334 290 272 170 191 182 122 29 0 0 0 0 0 0 1 3 3 0 0 1 2 6 3 4 3 3 3 3 5 3 4 3 3 1 0 0 0 0
680 433 127 173 493 319 266 221 184 165 208 179 81 69 44 0 0 0 0 0 0 0 0 0 0 0 0 0 1 2 6 4 5 5 3 4 3 3 1 0 0 0 1
705 521 311 389 420 268 282 258 223 157 82 15 31 39 44 43 0 0 0 0 0 0 0 0 0 0 0 0 0 0 1 3 5 4 4 1 4 3 2 0 0 0 0
587 540 393 408 370 322 345 347 176 25 18 0 0 0 7 24 0 0 0 0 0 0 0 0 0 0 0 0 0 1 0 0 1 2 2 3 3 2 0 0 0 0 1
631 475 258 417 447 351 307 312 235 156 68 66 16 0 0 0 0 0 0 0 0 0 0 0 0 0 0 0 0 2 4 3 1 0 3 2 1 0 0 0 0 0 0
536 201 334 518 420 343 351 403 386 308 256 168 136 13 0 0 0 0 0 0 0 0 0 0 0 0 0 0 0 0 0 0 0 0 0 0 0 0 1 0 0 1 3
528 169 368 639 545 415 457 467 532 432 414 380 290 135 6 0 0 0 0 0 0 0 0 0 0 0 0 0 0 0 0 0 0 0 0 0 0 0 0 3 4 25 32
538 295 274 674 803 743 658 695 552 491 503 484 367 255 58 0 0 0 0 0 0 0 0 0 0 0 0 0 0 0 0 0 0 0 0 0 0 2 5 0 8 31 32
610 456 277 463 794 920 931 794 541 540 610 599 529 420 329 121 0 0 0 0 0 0 0 0 0 0 0 0 0 0 0 0 0 0 0 0 0 0 0 0 0 0 2
564 549 277 419 856 709 602 670 523 576 604 625 484 342 361 314 133 0 0 0 0 0 0 0 0 0 0 0 0 0 0 0 0 0 0 0 0 0 0 0 0 0 0
685 429 356 592 776 570 33 75 581 641 675 636 592 407 471 249 259 134 0 0 0 0 0 0 0 0 0 0 0 0 0 0 0 0 0 0 0 0 0 0 0 0 0
925 727 541 504 508 527 386 372 489 490 466 593 399 331 343 267 185 48 13 0 0 0 0 0 0 0 0 0 0 0 0 0 0 0 0 0 0 0 0 0 0 0 0
634 487 431 338 301 161 94 60 0 19 12 0 0 0 0 0 0 0 0 0 0 0 1 0 0 0 0 0 0 0 0 0 0 0 0 0 0 0 0 0 0 0 0
249 249 185 176 158 167 228 194 78 0 0 0 0 0 0 0 0 0 0 0 0 2 3 2 0 0 0 0 0 0 0 0 0 0 0 0 0 0 0 0 0 0 0
16 11 25 87 84 88 105 62 27 28 6 1 0 0 0 0 0 0 0 0 0 2 5 6 3 2 2 0 0 0 0 0 0 0 0 0 0 0 0 0 0 0 0
10 2 1 3 12 22 14 1 0 0 3 6 0 0 0 0 0 0 0 1 2 0 1 4 5 2 0 0 0 0 0 0 0 0 0 0 0 0 0 0 0 0 0
1 0 6 4 11 12 0 0 1 1 4 5 4 2 0 0 0 0 0 0 0 1 2 1 1 1 1 0 0 0 0 0 0 0 0 0 0 0 0 0 0 0 0
155 95 32 31 27 31 14 4 4 6 11 12 4 5 2 10 32 24 9 1 3 3 4 2 1 0 0 0 0 0 0 0 0 0 0 0 0 0 0 0 0 0 0
107 138 150 209 168 123 91 39 42 19 23 6 3 1 0 0 0 0 0 0 1 0 1 3 1 3 3 4 3 2 1 2 2 0 0 0 0 3 0 0 0 0 0
59 91 148 213 207 133 119 89 93 117 16 0 0 0 1 1 4 3 2 2 1 2 0 2 2 2 1 2 4 2 1 2 3 2 2 0 0 0 0 1 0 4 4
0 17 81 126 59 96 104 78 3 0 0 0 0 0 0 2 1 2 3 3 3 3 1 0 0 0 0 0 0 0 0 0 1 2 3 3 2 0 0 0 0 0 0
1 16 83 167 197 158 0 0 0 0 0 0 0 0 1 2 3 5 6 6 5 8 8 4 2 0 0 0 0 0 0 0 0 0 0 0 0 2 0 0 0 0 0
33 24 27 31 18 0 0 0 0 0 0 0 0 1 1 4 9 14 16 7 4 2 2 1 0 0 0 0 0 0 0 0 0 0 0 0 1 0 0 0 0 1 1
CIN
-163 -125 -145 -214 -276 -109 -85 -32 -20 -9 -7 -28 -67 -9 0 0 0 0 0 -46 -29 -4 -11 -19 -32 -23 -3 0 0 0 -31 0 0 0 0 0 0 0 0 0 0 0 0
-187 -169 -238 -264 -203 -122 -82 -46 -8 -22 -4 -38 -121 -114 0 0 0 0 0 0 -79 -49 -32 -33 -39 -55 -11 0 0 -43 0 0 0 0 0 0 0 0 0 0 0 0 0
-216 -206 -342 -300 -251 -114 -54 -61 -67 -47 -36 -48 -89 -15 0 0 0 0 0 0 0 0 0 -133 -114 -24 -35 -52 -45 0 0 0 0 0 0 0 0 0 0 0 0 0 0
-170 -196 -279 -277 -200 -126 -109 -69 -76 -48 -33 -38 -67 0 0 0 0 0 0 0 0 0 0 0 0 0 -50 0 0 0 0 0 0 0 0 0 0 0 0 0 0 0 0
-169 -194 -230 -206 -92 -116 -111 -116 -89 -64 -25 -41 -61 -76 -58 0 0 0 0 0 0 0 0 0 0 0 0 0 0 0 0 0 0 0 0 0 0 0 0 0 0 0 -1
-172 -175 -155 -152 -102 -97 -120 -162 -98 -85 -89 -106 -103 -103 -108 -74 0 0 0 0 0 0 0 0 0 0 0 0 0 0 0 0 0 0 0 0 0 0 0 0 0 0 0
-202 -184 -196 -160 -91 -64 -121 -122 -176 -106 -111 0 0 0 -153 -88 0 0 0 0 0 0 0 0 0 0 0 0 0 0 0 0 0 0 0 0 0 0 0 0 0 0 0
-232 -230 -253 -129 -65 -67 -138 -165 -209 -136 -97 -87 -67 0 0 0 0 0 0 0 0 0 0 0 0 0 0 0 0 0 0 0 0 0 0 0 0 0 0 0 0 0 0
-210 -310 -207 -136 -82 -93 -114 -173 -96 -112 -72 -69 -64 -140 0 0 0 0 0 0 0 0 0 0 0 0 0 0 0 0 0 0 0 0 0 0 0 0 0 0 0 0 0
-252 -322 -199 -117 -82 -105 -105 -109 -52 -66 -58 -35 -42 -76 -34 0 0 0 0 0 0 0 0 0 0 0 0 0 0 0 0 0 0 0 0 0 0 0 0 0 -5 0 -1
-323 -358 -282 -120 -90 -95 -92 -76 -58 -45 -35 -23 -34 -49 -138 0 0 0 0 0 0 0 0 0 0 0 0 0 0 0 0 0 0 0 0 0 0 0 -1 0 0 -1 -1
-240 -255 -276 -204 -116 -68 -63 -62 -77 -49 -24 -29 -24 -45 -42 -91 0 0 0 0 0 0 0 0 0 0 0 0 0 0 0 0 0 0 0 0 0 0 0 0 0 0 0
-262 -223 -249 -196 -122 -111 -99 -67 -105 -55 -28 -23 -25 -54 -43 -37 -96 0 0 0 0 0 0 0 0 0 0 0 0 0 0 0 0 0 0 0 0 0 0 0 0 0 0
-182 -242 -256 -191 -137 -131 -82 -158 -54 -56 -42 -26 -23 -40 -24 -52 -46 -86 0 0 0 0 0 0 0 0 0 0 0 0 0 0 0 0 0 0 0 0 0 0 0 0 0
-119 -150 -175 -190 -170 -126 -120 -90 -75 -74 -54 -20 -57 -42 -39 -69 -83 -131 -150 0 0 0 0 0 0 0 0 0 0 0 0 0 0 0 0 0 0 0 0 0 0 0 0
-115 -137 -175 -211 -206 -172 -153 -195 0 -52 -70 0 0 0 0 0 0 0 0 0 0 0 0 0 0 0 0 0 0 0 0 0 0 0 0 0 0 0 0 0 0 0 0
-102 -146 -189 -177 -105 -84 -100 -96 -145 0 0 0 0 0 0 0 0 0 0 0 0 0 0 0 0 0 0 0 0 0 0 0 0 0 0 0 0 0 0 0 0 0 0
-174 -229 -197 -85 -60 -79 -109 -132 -117 -170 -163 -2 0 0 0 0 0 0 0 0 0 0 0 0 0 0 0 0 0 0 0 0 0 0 0 0 0 0 0 0 0 0 0
-160 -102 -112 -61 -86 -81 -118 -79 0 -1 -98 -1 0 0 0 0 0 0 0 0 0 0 0 0 0 0 0 0 0 0 0 0 0 0 0 0 0 0 0 0 0 0 0
-116 -44 -166 -112 -146 -137 0 0 -1 0 0 0 0 -1 0 0 0 0 0 0 0 0 0 0 0 0 0 0 0 0 0 0 0 0 0 0 0 0 0 0 0 0 0
-22 -33 -64 -62 -44 -55 -91 -71 -1 -1 0 -1 -1 -5 -61 -44 -8 -9 -21 -1 0 0 0 0 0 0 0 0 0 0 0 0 0 0 0 0 0 -1 0 0 0 0 0
-60 -35 -33 -17 -8 -14 -9 -21 -7 -8 -5 -1 -3 -7 0 0 0 0 0 0 -24 0 0 0 0 0 0 0 0 0 0 0 0 0 0 0 0 0 0 0 0 0 0
-63 -36 -18 -47 -42 -17 -19 -3 0 0 -3 0 0 0 0 0 0 0 0 0 0 0 0 0 0 -1 -1 0 0 -1 0 0 0 0 0 0 0 0 0 -51 -7 -32 -18
0 -60 -30 -21 -11 -10 -8 -9 -4 0 0 0 0 0 -1 0 0 -1 0 0 0 0 0 -1 -1 0 0 0 0 0 0 -1 -1 -1 -1 -1 0 -1 0 0 0 0 -3
-2 -23 -25 -10 -9 -13 0 0 0 0 0 0 0 0 0 0 0 0 0 0 0 0 0 0 -1 0 0 0 0 0 0 0 0 0 0 0 0 -1 0 0 0 0 0
0 -32 -47 -44 -46 0 0 0 0 0 0 0 -1 -1 -2 -1 -1 0 0 -1 0 0 0 0 0 0 0 0 0 0 0 0 0 0 0 0 0 0 0 0 0 0 0
Wind_Speed
14 16 16 16 16 18 18 18 18 18 14 11 11 13 15 15 16 16 17 17 17 16 16 16 16 16 14 12 9 7 7 7 7 8 7 10 11 12 12 12 12 12 12
15 16 17 17 18 18 18 18 17 16 15 14 13 13 14 15 16 15 15 15 15 16 15 15 15 14 13 12 9 8 7 8 7 7 6 8 9 10 10 11 12 12 12
14 15 16 17 17 16 16 17 17 16 14 13 13 13 14 15 15 15 14 14 14 15 15 15 15 14 13 11 10 9 8 8 7 6 6 7 7 7 8 9 10 11 11
13 14 15 15 15 15 16 16 16 16 15 13 12 12 13 15 15 15 15 15 15 15 15 15 15 15 14 13 11 9 8 7 6 5 5 5 6 6 7 7 8 9 9
11 11 13 13 13 14 15 15 15 15 14 14 12 12 13 14 15 15 15 15 16 15 16 16 15 15 15 14 12 10 8 8 6 5 5 5 5 3 3 5 6 7 9
9 9 11 11 12 13 14 15 14 14 14 14 14 12 12 13 14 14 15 15 16 16 16 15 15 15 15 14 13 12 11 8 6 5 6 3 3 3 3 3 5 5 8
7 7 9 10 12 13 13 14 14 14 14 14 14 13 12 11 10 12 14 16 15 15 16 16 15 15 15 14 13 13 13 12 9 7 6 4 3 1 1 2 2 5 10
4 3 6 8 12 11 11 11 13 13 13 12 12 12 12 11 10 10 11 15 15 16 16 16 16 15 14 14 14 14 14 12 11 10 8 4 4 1 1 2 3 7 12
6 1 5 7 10 8 7 9 11 11 11 10 10 9 9 9 9 8 8 12 14 14 16 17 16 15 13 13 13 13 14 14 13 12 11 8 6 2 1 3 3 6 10
3 2 2 2 3 3 5 7 8 10 10 9 8 7 7 8 7 8 7 7 10 11 13 14 14 15 13 13 14 13 13 12 11 10 10 9 6 4 3 4 4 7 9
9 3 4 2 2 2 6 5 3 5 7 6 5 7 7 6 5 4 6 6 5 7 10 10 11 10 9 10 11 13 14 11 10 9 9 8 8 6 6 8 11 10 11
1 3 5 6 7 7 7 10 5 2 2 2 4 7 5 5 2 2 1 5 3 5 6 9 11 8 8 9 10 11 10 9 9 9 9 9 8 9 10 11 12 12 13
5 3 5 8 8 8 5 3 8 3 3 5 10 12 8 7 4 2 1 3 3 7 14 15 14 12 9 10 11 12 8 9 10 10 10 9 8 10 10 11 12 13 13
12 6 6 7 9 10 8 15 7 6 6 7 10 12 14 13 11 9 5 4 4 6 10 16 17 17 14 15 14 12 10 10 11 12 11 10 10 10 11 11 12 12 12
13 10 11 13 13 11 10 7 8 10 9 10 12 17 18 14 12 12 10 9 9 9 12 14 15 16 16 15 16 15 15 15 13 14 14 13 13 13 13 12 12 12 12
12 12 11 18 18 15 11 11 12 9 10 13 14 19 20 20 19 18 17 14 13 13 16 15 14 14 14 12 14 16 18 12 13 14 15 16 15 15 15 13 12 13 13
10 9 14 16 20 17 13 11 8 12 13 15 17 20 23 26 26 24 23 23 22 16 19 18 17 17 17 16 14 15 15 15 14 14 16 16 16 15 13 13 13 13 14
12 14 15 19 18 16 13 12 13 13 17 17 17 20 23 26 26 26 24 22 24 21 22 23 21 20 22 21 20 18 19 20 18 17 17 16 15 16 16 16 16 15 16
9 10 11 13 14 13 14 14 14 17 20 20 21 22 22 23 24 23 21 23 24 23 22 23 24 23 22 21 21 20 20 21 22 22 21 18 17 17 17 16 18 17 16
10 10 11 14 15 15 16 16 16 17 20 21 22 23 22 21 23 23 23 23 23 23 21 21 21 20 20 20 21 21 21 22 22 26 21 19 22 20 17 17 18 18 16
13 13 14 16 17 18 18 19 19 19 21 23 24 24 25 26 26 26 26 26 26 25 24 23 23 23 23 23 22 20 23 24 24 26 28 26 26 24 19 21 19 19 19
18 17 16 17 17 19 19 19 20 21 22 24 24 24 23 23 24 25 25 25 24 23 22 21 23 24 24 24 24 24 24 25 26 25 25 26 30 28 26 23 23 23 21
25 26 25 22 19 21 21 21 21 22 21 21 23 24 24 25 25 25 26 26 26 25 24 25 26 26 25 25 24 24 25 27 28 26 25 29 31 29 28 28 27 26 24
29 28 27 26 21 19 19 18 17 18 18 20 21 22 23 24 25 26 26 26 26 25 24 24 25 27 28 27 28 29 30 29 28 29 27 27 28 28 29 30 30 31 29
26 25 24 21 18 16 15 16 16 16 17 19 20 22 23 24 25 26 26 25 25 25 24 25 26 27 28 30 31 32 32 34 33 32 33 32 31 32 31 34 34 35 36
18 18 16 15 13 12 13 14 15 16 18 20 21 23 26 27 27 27 27 27 26 25 26 25 26 28 28 29 30 31 34 35 36 35 34 33 36 36 37 36 35 33 37
Wind_Direction
88 101 95 92 88 83 78 87 91 95 71 310 332 320 303 306 310 308 308 310 313 311 312 308 300 293 306 314 338 15 14 16 30 14 22 20 16 32 28 26 29 31 29
74 75 71 86 75 88 89 87 94 79 78 56 1 334 332 320 315 321 319 311 313 314 309 304 301 301 304 316 345 7 24 16 54 70 42 10 11 23 35 40 34 29 35
65 82 79 86 84 90 92 90 93 102 69 42 24 10 7 357 350 349 342 335 322 317 312 305 305 305 315 330 343 5 14 17 42 56 21 12 11 24 24 23 24 23 23
46 69 82 93 87 90 90 91 86 93 103 69 29 19 5 12 15 12 1 348 342 330 318 316 318 318 321 330 345 359 12 19 19 30 9 9 9 15 16 38 23 23 24
56 77 108 100 83 87 89 83 82 76 95 100 59 26 7 6 13 15 9 1 351 343 332 327 330 333 333 335 343 351 3 360 5 1 346 343 353 26 37 17 17 27 13
71 88 108 102 99 102 86 79 78 77 85 85 84 27 19 360 356 359 1 358 355 350 345 342 342 343 343 346 350 347 346 353 350 341 329 334 350 348 12 32 18 20 9
69 79 105 100 118 112 80 73 66 87 90 86 88 80 36 30 38 359 351 342 348 347 343 344 347 350 350 351 353 353 347 345 345 341 327 321 327 63 67 29 20 360 345
39 34 87 112 133 113 83 71 72 89 102 104 97 90 80 71 39 27 15 344 339 336 338 340 341 345 347 349 349 347 345 343 340 338 339 340 342 69 107 11 3 343 340
318 339 132 122 134 107 84 66 91 88 86 97 98 79 77 73 82 73 41 2 352 356 339 336 339 347 349 350 348 348 346 341 339 334 333 339 341 61 50 357 336 333 332
184 206 173 125 124 81 39 42 95 121 122 111 101 83 76 58 70 102 76 47 357 356 359 357 354 348 348 344 339 338 337 342 350 349 345 341 350 340 341 331 326 319 325
154 216 256 213 274 310 331 345 70 115 134 105 85 43 35 43 48 89 124 119 84 17 3 4 2 4 5 4 349 341 333 347 351 350 347 344 335 329 323 317 318 318 318
270 201 223 273 288 302 312 314 327 3 148 51 26 11 27 23 57 21 163 175 14 357 357 353 348 358 358 352 351 343 345 348 344 337 331 326 324 319 318 319 320 318 318
285 193 254 279 289 294 302 245 299 283 313 335 338 339 349 360 6 186 279 237 255 316 320 322 326 329 329 327 324 327 334 327 323 324 320 320 322 323 325 325 325 324 321
287 274 272 261 289 284 313 291 298 300 307 318 328 329 332 334 339 341 334 314 274 302 314 316 315 311 309 307 310 309 309 313 311 309 309 313 313 312 311 316 317 319 320
277 282 291 288 285 282 284 276 293 309 312 317 322 318 317 327 332 327 323 312 308 305 313 315 310 310 306 299 301 303 298 299 300 300 301 301 300 300 301 306 307 309 309
272 284 297 286 289 294 300 309 322 325 329 330 329 320 318 320 324 325 321 311 309 308 304 301 299 297 294 291 293 298 297 295 298 299 298 297 294 293 296 295 297 299 300
284 291 302 292 288 297 308 319 324 321 324 321 323 322 318 316 316 317 316 314 311 303 301 299 293 286 297 285 289 289 287 288 293 294 298 297 295 292 288 290 291 292 296
296 302 288 285 295 303 318 324 325 321 316 320 321 323 321 320 319 318 321 321 314 309 302 300 302 297 297 295 296 291 293 295 290 293 291 292 290 288 288 288 288 288 290
314 308 303 297 303 316 319 324 327 318 313 316 320 322 326 325 325 325 327 322 317 315 313 308 306 306 304 302 301 297 294 291 288 288 287 289 286 283 282 285 287 285 285
332 332 315 303 307 317 322 321 322 320 317 319 321 323 326 328 326 326 327 326 323 320 318 317 315 314 311 306 304 301 296 294 287 284 287 287 289 284 282 283 286 287 282
323 319 318 312 311 315 316 314 314 317 317 317 320 322 321 319 320 323 325 325 325 324 322 322 320 318 315 312 310 309 305 300 296 284 288 283 290 284 281 284 283 282 283
315 314 319 313 315 313 313 313 312 315 317 319 322 326 330 327 325 326 328 330 332 333 333 332 329 327 324 319 316 311 308 304 304 299 289 284 283 286 282 281 280 280 275
297 293 298 304 307 306 307 309 312 315 320 325 327 330 333 332 332 333 334 333 332 330 330 327 325 325 327 326 325 321 317 313 309 304 296 290 287 283 282 281 280 277 269
294 294 297 300 302 306 311 316 324 329 332 335 339 341 341 342 341 340 340 338 337 337 338 335 333 331 329 328 324 321 317 316 314 310 305 301 295 292 287 284 281 279 272
299 302 307 308 308 312 319 323 327 331 339 344 346 349 347 346 346 346 346 346 345 343 342 341 338 334 332 329 327 325 324 320 317 313 306 303 301 299 296 292 286 283 277
315 319 324 329 335 336 335 337 340 342 344 346 345 343 341 341 342 343 344 344 343 342 342 343 342 340 338 337 333 331 329 327 325 323 317 308 302 299 295 292 290 286 281